000000,18.647, 08 Nov 2015, 00:00:36
000030,18.6464, 08 Nov 2015, 00:01:05
000100,18.6447, 08 Nov 2015, 00:01:35
000130,18.643, 08 Nov 2015, 00:02:06
000200,18.6426, 08 Nov 2015, 00:02:36
000230,18.6417, 08 Nov 2015, 00:03:06
000300,18.6405, 08 Nov 2015, 00:03:35
000330,18.6378, 08 Nov 2015, 00:04:05
000400,18.6372, 08 Nov 2015, 00:04:36
000430,18.6376, 08 Nov 2015, 00:05:06
000500,18.6377, 08 Nov 2015, 00:05:36
000530,18.6379, 08 Nov 2015, 00:06:05
000600,18.6383, 08 Nov 2015, 00:06:36
000630,18.639, 08 Nov 2015, 00:07:07
000700,18.64, 08 Nov 2015, 00:07:36
000730,18.6405, 08 Nov 2015, 00:08:06
000800,18.6428, 08 Nov 2015, 00:08:36
000830,18.6429, 08 Nov 2015, 00:09:07
000900,18.6444, 08 Nov 2015, 00:09:37
000930,18.6464, 08 Nov 2015, 00:10:06
001000,18.6477, 08 Nov 2015, 00:10:36
001030,18.649, 08 Nov 2015, 00:11:06
001100,18.65, 08 Nov 2015, 00:11:37
001130,18.6507, 08 Nov 2015, 00:12:06
001200,18.6517, 08 Nov 2015, 00:12:36
001230,18.6529, 08 Nov 2015, 00:13:06
001300,18.6544, 08 Nov 2015, 00:13:36
001330,18.656, 08 Nov 2015, 00:14:07
001400,18.6574, 08 Nov 2015, 00:14:36
001430,18.658, 08 Nov 2015, 00:15:06
001500,18.659, 08 Nov 2015, 00:15:36
001530,18.6598, 08 Nov 2015, 00:16:07
001600,18.659, 08 Nov 2015, 00:16:36
001630,18.6589, 08 Nov 2015, 00:17:06
001700,18.6579, 08 Nov 2015, 00:17:36
001730,18.6564, 08 Nov 2015, 00:18:06
001800,18.6546, 08 Nov 2015, 00:18:36
001830,18.6537, 08 Nov 2015, 00:19:06
001900,18.6527, 08 Nov 2015, 00:19:36
001930,18.6514, 08 Nov 2015, 00:20:06
002000,18.6499, 08 Nov 2015, 00:20:36
002030,18.6498, 08 Nov 2015, 00:21:06
002100,18.6483, 08 Nov 2015, 00:21:36
002130,18.6477, 08 Nov 2015, 00:22:06
002200,18.6462, 08 Nov 2015, 00:22:36
002230,18.6432, 08 Nov 2015, 00:23:06
002300,18.6403, 08 Nov 2015, 00:23:36
002330,18.6373, 08 Nov 2015, 00:24:06
002400,18.6341, 08 Nov 2015, 00:24:36
002430,18.6301, 08 Nov 2015, 00:25:06
002500,18.6245, 08 Nov 2015, 00:25:36
002530,18.6193, 08 Nov 2015, 00:26:06
002600,18.6142, 08 Nov 2015, 00:26:36
002630,18.6093, 08 Nov 2015, 00:27:05
002700,18.6044, 08 Nov 2015, 00:27:36
002730,18.5991, 08 Nov 2015, 00:28:06
002800,18.5956, 08 Nov 2015, 00:28:36
002830,18.5927, 08 Nov 2015, 00:29:05
002900,18.5915, 08 Nov 2015, 00:29:36
002930,18.5913, 08 Nov 2015, 00:30:06
003000,18.5912, 08 Nov 2015, 00:30:36
003030,18.5913, 08 Nov 2015, 00:31:06
003100,18.5925, 08 Nov 2015, 00:31:35
003130,18.5932, 08 Nov 2015, 00:32:06
003200,18.5924, 08 Nov 2015, 00:32:36
003230,18.5905, 08 Nov 2015, 00:33:06
003300,18.5855, 08 Nov 2015, 00:33:35
003330,18.5803, 08 Nov 2015, 00:34:06
003400,18.5784, 08 Nov 2015, 00:34:36
003430,18.5789, 08 Nov 2015, 00:35:06
003500,18.5799, 08 Nov 2015, 00:35:36
003530,18.5829, 08 Nov 2015, 00:36:05
003600,18.5945, 08 Nov 2015, 00:36:36
003630,18.6098, 08 Nov 2015, 00:37:06
003700,18.6268, 08 Nov 2015, 00:37:35
003730,18.6453, 08 Nov 2015, 00:38:05
003800,18.6608, 08 Nov 2015, 00:38:36
003830,18.6735, 08 Nov 2015, 00:39:06
003900,18.6834, 08 Nov 2015, 00:39:35
003930,18.6902, 08 Nov 2015, 00:40:05
004000,18.695, 08 Nov 2015, 00:40:36
004030,18.6978, 08 Nov 2015, 00:41:06
004100,18.6992, 08 Nov 2015, 00:41:36
004130,18.6974, 08 Nov 2015, 00:42:05
004200,18.694, 08 Nov 2015, 00:42:35
004230,18.6878, 08 Nov 2015, 00:43:06
004300,18.6806, 08 Nov 2015, 00:43:36
004330,18.6723, 08 Nov 2015, 00:44:05
004400,18.6645, 08 Nov 2015, 00:44:35
004430,18.6565, 08 Nov 2015, 00:45:06
004500,18.6502, 08 Nov 2015, 00:45:36
004530,18.6443, 08 Nov 2015, 00:46:06
004600,18.6397, 08 Nov 2015, 00:46:36
004630,18.6356, 08 Nov 2015, 00:47:07
004700,18.6324, 08 Nov 2015, 00:47:37
004730,18.6306, 08 Nov 2015, 00:48:06
004800,18.6293, 08 Nov 2015, 00:48:36
004830,18.628, 08 Nov 2015, 00:49:06
004900,18.6272, 08 Nov 2015, 00:49:37
004930,18.6247, 08 Nov 2015, 00:50:06
005000,18.6219, 08 Nov 2015, 00:50:36
005030,18.6192, 08 Nov 2015, 00:51:06
005100,18.6154, 08 Nov 2015, 00:51:37
005130,18.6094, 08 Nov 2015, 00:52:06
005200,18.6023, 08 Nov 2015, 00:52:36
005230,18.5943, 08 Nov 2015, 00:53:06
005300,18.5859, 08 Nov 2015, 00:53:36
005330,18.5767, 08 Nov 2015, 00:54:07
005400,18.5672, 08 Nov 2015, 00:54:36
005430,18.5566, 08 Nov 2015, 00:55:06
005500,18.5447, 08 Nov 2015, 00:55:36
005530,18.5324, 08 Nov 2015, 00:56:07
005600,18.5206, 08 Nov 2015, 00:56:36
005630,18.5091, 08 Nov 2015, 00:57:06
005700,18.4971, 08 Nov 2015, 00:57:36
005730,18.484, 08 Nov 2015, 00:58:07
005800,18.4698, 08 Nov 2015, 00:58:36
005830,18.4547, 08 Nov 2015, 00:59:06
005900,18.4389, 08 Nov 2015, 00:59:36
005930,18.4244, 08 Nov 2015, 01:00:06
010000,18.4107, 08 Nov 2015, 01:00:36
010030,18.3965, 08 Nov 2015, 01:01:06
010100,18.3798, 08 Nov 2015, 01:01:36
010130,18.3602, 08 Nov 2015, 01:02:06
010200,18.3383, 08 Nov 2015, 01:02:36
010230,18.3101, 08 Nov 2015, 01:03:06
010300,18.2777, 08 Nov 2015, 01:03:36
010330,18.2482, 08 Nov 2015, 01:04:06
010400,18.2235, 08 Nov 2015, 01:04:36
010430,18.2031, 08 Nov 2015, 01:05:06
010500,18.1845, 08 Nov 2015, 01:05:36
010530,18.1698, 08 Nov 2015, 01:06:06
010600,18.1571, 08 Nov 2015, 01:06:36
010630,18.1453, 08 Nov 2015, 01:07:06
010700,18.1357, 08 Nov 2015, 01:07:35
010730,18.1268, 08 Nov 2015, 01:08:06
010800,18.1185, 08 Nov 2015, 01:08:36
010830,18.1096, 08 Nov 2015, 01:09:06
010900,18.1013, 08 Nov 2015, 01:09:36
010930,18.094, 08 Nov 2015, 01:10:06
011000,18.0867, 08 Nov 2015, 01:10:35
011030,18.0787, 08 Nov 2015, 01:11:06
011100,18.0711, 08 Nov 2015, 01:11:36
011130,18.064, 08 Nov 2015, 01:12:06
011200,18.056, 08 Nov 2015, 01:12:36
011230,18.0487, 08 Nov 2015, 01:13:05
011300,18.041, 08 Nov 2015, 01:13:36
011330,18.033, 08 Nov 2015, 01:14:06
011400,18.0248, 08 Nov 2015, 01:14:36
011430,18.0167, 08 Nov 2015, 01:15:06
011500,18.0072, 08 Nov 2015, 01:15:35
011530,17.9967, 08 Nov 2015, 01:16:06
011600,17.9836, 08 Nov 2015, 01:16:36
011630,17.9702, 08 Nov 2015, 01:17:06
011700,17.9577, 08 Nov 2015, 01:17:35
011730,17.9453, 08 Nov 2015, 01:18:05
011800,17.9344, 08 Nov 2015, 01:18:36
011830,17.9239, 08 Nov 2015, 01:19:06
011900,17.9143, 08 Nov 2015, 01:19:35
011930,17.9045, 08 Nov 2015, 01:20:05
012000,17.8936, 08 Nov 2015, 01:20:36
012030,17.8817, 08 Nov 2015, 01:21:06
012100,17.8701, 08 Nov 2015, 01:21:36
012130,17.8575, 08 Nov 2015, 01:22:05
012200,17.8458, 08 Nov 2015, 01:22:35
012230,17.8339, 08 Nov 2015, 01:23:06
012300,17.822, 08 Nov 2015, 01:23:36
012330,17.8112, 08 Nov 2015, 01:24:05
012400,17.8021, 08 Nov 2015, 01:24:35
012430,17.7928, 08 Nov 2015, 01:25:06
012500,17.7835, 08 Nov 2015, 01:25:36
012530,17.7723, 08 Nov 2015, 01:26:06
012600,17.7609, 08 Nov 2015, 01:26:36
012630,17.7531, 08 Nov 2015, 01:27:07
012700,17.7471, 08 Nov 2015, 01:27:37
012730,17.742, 08 Nov 2015, 01:28:06
012800,17.739, 08 Nov 2015, 01:28:36
012830,17.7365, 08 Nov 2015, 01:29:06
012900,17.7345, 08 Nov 2015, 01:29:37
012930,17.7275, 08 Nov 2015, 01:30:06
013000,17.7165, 08 Nov 2015, 01:30:36
013030,17.7041, 08 Nov 2015, 01:31:06
013100,17.6935, 08 Nov 2015, 01:31:37
013130,17.6849, 08 Nov 2015, 01:32:07
013200,17.6665, 08 Nov 2015, 01:32:36
013230,17.6408, 08 Nov 2015, 01:33:06
013300,17.6159, 08 Nov 2015, 01:33:36
013330,17.5947, 08 Nov 2015, 01:34:07
013400,17.5782, 08 Nov 2015, 01:34:36
013430,17.5638, 08 Nov 2015, 01:35:06
013500,17.5526, 08 Nov 2015, 01:35:36
013530,17.5438, 08 Nov 2015, 01:36:07
013600,17.5379, 08 Nov 2015, 01:36:36
013630,17.5333, 08 Nov 2015, 01:37:06
013700,17.5309, 08 Nov 2015, 01:37:36
013730,17.5293, 08 Nov 2015, 01:38:06
013800,17.5295, 08 Nov 2015, 01:38:36
013830,17.53, 08 Nov 2015, 01:39:06
013900,17.5325, 08 Nov 2015, 01:39:36
013930,17.5359, 08 Nov 2015, 01:40:06
014000,17.5391, 08 Nov 2015, 01:40:37
014030,17.5435, 08 Nov 2015, 01:41:06
014100,17.548, 08 Nov 2015, 01:41:36
014130,17.554, 08 Nov 2015, 01:42:06
014200,17.5605, 08 Nov 2015, 01:42:37
014230,17.5662, 08 Nov 2015, 01:43:06
014300,17.5718, 08 Nov 2015, 01:43:36
014330,17.5769, 08 Nov 2015, 01:44:06
014400,17.5815, 08 Nov 2015, 01:44:36
014430,17.5846, 08 Nov 2015, 01:45:06
014500,17.5875, 08 Nov 2015, 01:45:36
014530,17.5909, 08 Nov 2015, 01:46:06
014600,17.5928, 08 Nov 2015, 01:46:36
014630,17.5953, 08 Nov 2015, 01:47:05
014700,17.5984, 08 Nov 2015, 01:47:36
014730,17.6016, 08 Nov 2015, 01:48:06
014800,17.6052, 08 Nov 2015, 01:48:36
014830,17.6086, 08 Nov 2015, 01:49:05
014900,17.6119, 08 Nov 2015, 01:49:36
014930,17.6152, 08 Nov 2015, 01:50:06
015000,17.6198, 08 Nov 2015, 01:50:36
015030,17.6241, 08 Nov 2015, 01:51:06
015100,17.6272, 08 Nov 2015, 01:51:36
015130,17.6307, 08 Nov 2015, 01:52:06
015200,17.6347, 08 Nov 2015, 01:52:36
015230,17.6376, 08 Nov 2015, 01:53:06
015300,17.6382, 08 Nov 2015, 01:53:35
015330,17.6377, 08 Nov 2015, 01:54:06
015400,17.637, 08 Nov 2015, 01:54:36
015430,17.6397, 08 Nov 2015, 01:55:06
015500,17.6472, 08 Nov 2015, 01:55:36
015530,17.6595, 08 Nov 2015, 01:56:06
015600,17.6733, 08 Nov 2015, 01:56:36
015630,17.6851, 08 Nov 2015, 01:57:06
015700,17.6945, 08 Nov 2015, 01:57:35
015730,17.7003, 08 Nov 2015, 01:58:05
015800,17.7038, 08 Nov 2015, 01:58:36
015830,17.7043, 08 Nov 2015, 01:59:06
015900,17.7023, 08 Nov 2015, 01:59:35
015930,17.697, 08 Nov 2015, 02:00:05
020000,17.692, 08 Nov 2015, 02:00:36
020030,17.6881, 08 Nov 2015, 02:01:06
020100,17.6831, 08 Nov 2015, 02:01:36
020130,17.6784, 08 Nov 2015, 02:02:05
020200,17.6739, 08 Nov 2015, 02:02:35
020230,17.6687, 08 Nov 2015, 02:03:06
020300,17.6611, 08 Nov 2015, 02:03:36
020330,17.656, 08 Nov 2015, 02:04:06
020400,17.6517, 08 Nov 2015, 02:04:35
020430,17.649, 08 Nov 2015, 02:05:05
020500,17.648, 08 Nov 2015, 02:05:36
020530,17.6472, 08 Nov 2015, 02:06:06
020600,17.6465, 08 Nov 2015, 02:06:36
020630,17.6466, 08 Nov 2015, 02:07:06
020700,17.6465, 08 Nov 2015, 02:07:37
020730,17.6461, 08 Nov 2015, 02:08:07
020800,17.6472, 08 Nov 2015, 02:08:36
020830,17.6479, 08 Nov 2015, 02:09:06
020900,17.6494, 08 Nov 2015, 02:09:36
020930,17.6498, 08 Nov 2015, 02:10:07
021000,17.6501, 08 Nov 2015, 02:10:37
021030,17.6503, 08 Nov 2015, 02:11:06
021100,17.651, 08 Nov 2015, 02:11:36
021130,17.6508, 08 Nov 2015, 02:12:07
021200,17.652, 08 Nov 2015, 02:12:37
021230,17.6532, 08 Nov 2015, 02:13:06
021300,17.6549, 08 Nov 2015, 02:13:36
021330,17.6556, 08 Nov 2015, 02:14:06
021400,17.6562, 08 Nov 2015, 02:14:37
021430,17.6567, 08 Nov 2015, 02:15:07
021500,17.657, 08 Nov 2015, 02:15:36
021530,17.6579, 08 Nov 2015, 02:16:06
021600,17.6592, 08 Nov 2015, 02:16:37
021630,17.6608, 08 Nov 2015, 02:17:06
021700,17.6627, 08 Nov 2015, 02:17:36
021730,17.6637, 08 Nov 2015, 02:18:06
021800,17.6646, 08 Nov 2015, 02:18:36
021830,17.6652, 08 Nov 2015, 02:19:07
021900,17.6653, 08 Nov 2015, 02:19:36
021930,17.6649, 08 Nov 2015, 02:20:06
022000,17.6643, 08 Nov 2015, 02:20:36
022030,17.6638, 08 Nov 2015, 02:21:07
022100,17.6636, 08 Nov 2015, 02:21:36
022130,17.6632, 08 Nov 2015, 02:22:06
022200,17.6633, 08 Nov 2015, 02:22:36
022230,17.6646, 08 Nov 2015, 02:23:06
022300,17.665, 08 Nov 2015, 02:23:36
022330,17.6653, 08 Nov 2015, 02:24:06
022400,17.666, 08 Nov 2015, 02:24:36
022430,17.6668, 08 Nov 2015, 02:25:06
022500,17.668, 08 Nov 2015, 02:25:37
022530,17.6693, 08 Nov 2015, 02:26:06
022600,17.6694, 08 Nov 2015, 02:26:36
022630,17.6702, 08 Nov 2015, 02:27:06
022700,17.6703, 08 Nov 2015, 02:27:35
022730,17.671, 08 Nov 2015, 02:28:06
022800,17.6711, 08 Nov 2015, 02:28:36
022830,17.6705, 08 Nov 2015, 02:29:06
022900,17.67, 08 Nov 2015, 02:29:36
022930,17.67, 08 Nov 2015, 02:30:06
023000,17.6701, 08 Nov 2015, 02:30:36
023030,17.6702, 08 Nov 2015, 02:31:06
023100,17.6699, 08 Nov 2015, 02:31:36
023130,17.6693, 08 Nov 2015, 02:32:05
023200,17.6704, 08 Nov 2015, 02:32:36
023230,17.6718, 08 Nov 2015, 02:33:06
023300,17.6726, 08 Nov 2015, 02:33:36
023330,17.6723, 08 Nov 2015, 02:34:06
023400,17.6714, 08 Nov 2015, 02:34:36
023430,17.6709, 08 Nov 2015, 02:35:06
023500,17.6708, 08 Nov 2015, 02:35:36
023530,17.6712, 08 Nov 2015, 02:36:06
023600,17.6734, 08 Nov 2015, 02:36:35
023630,17.6777, 08 Nov 2015, 02:37:06
023700,17.6832, 08 Nov 2015, 02:37:36
023730,17.6887, 08 Nov 2015, 02:38:05
023800,17.6918, 08 Nov 2015, 02:38:35
023830,17.6909, 08 Nov 2015, 02:39:06
023900,17.6889, 08 Nov 2015, 02:39:36
023930,17.6912, 08 Nov 2015, 02:40:06
024000,17.6951, 08 Nov 2015, 02:40:35
024030,17.6991, 08 Nov 2015, 02:41:06
024100,17.7033, 08 Nov 2015, 02:41:36
024130,17.7036, 08 Nov 2015, 02:42:06
024200,17.7027, 08 Nov 2015, 02:42:35
024230,17.7025, 08 Nov 2015, 02:43:05
024300,17.7042, 08 Nov 2015, 02:43:36
024330,17.7054, 08 Nov 2015, 02:44:06
024400,17.7062, 08 Nov 2015, 02:44:36
024430,17.707, 08 Nov 2015, 02:45:05
024500,17.7092, 08 Nov 2015, 02:45:36
024530,17.7129, 08 Nov 2015, 02:46:06
024600,17.7169, 08 Nov 2015, 02:46:36
024630,17.7197, 08 Nov 2015, 02:47:06
024700,17.7218, 08 Nov 2015, 02:47:37
024730,17.7239, 08 Nov 2015, 02:48:07
024800,17.7257, 08 Nov 2015, 02:48:36
024830,17.7282, 08 Nov 2015, 02:49:06
024900,17.7307, 08 Nov 2015, 02:49:36
024930,17.7325, 08 Nov 2015, 02:50:07
025000,17.7336, 08 Nov 2015, 02:50:36
025030,17.7352, 08 Nov 2015, 02:51:06
025100,17.7367, 08 Nov 2015, 02:51:36
025130,17.7383, 08 Nov 2015, 02:52:07
025200,17.7387, 08 Nov 2015, 02:52:37
025230,17.7398, 08 Nov 2015, 02:53:06
025300,17.7409, 08 Nov 2015, 02:53:36
025330,17.7404, 08 Nov 2015, 02:54:07
025400,17.7403, 08 Nov 2015, 02:54:37
025430,17.7411, 08 Nov 2015, 02:55:06
025500,17.7415, 08 Nov 2015, 02:55:36
025530,17.7417, 08 Nov 2015, 02:56:06
025600,17.7417, 08 Nov 2015, 02:56:36
025630,17.7429, 08 Nov 2015, 02:57:06
025700,17.7454, 08 Nov 2015, 02:57:36
025730,17.7481, 08 Nov 2015, 02:58:06
025800,17.7506, 08 Nov 2015, 02:58:37
025830,17.752, 08 Nov 2015, 02:59:06
025900,17.7537, 08 Nov 2015, 02:59:36
025930,17.7554, 08 Nov 2015, 03:00:06
030000,17.7583, 08 Nov 2015, 03:00:37
030030,17.7605, 08 Nov 2015, 03:01:06
030100,17.7621, 08 Nov 2015, 03:01:36
030130,17.7635, 08 Nov 2015, 03:02:06
030200,17.7641, 08 Nov 2015, 03:02:36
030230,17.7648, 08 Nov 2015, 03:03:07
030300,17.7654, 08 Nov 2015, 03:03:36
030330,17.7657, 08 Nov 2015, 03:04:06
030400,17.7655, 08 Nov 2015, 03:04:36
030430,17.7665, 08 Nov 2015, 03:05:06
030500,17.7667, 08 Nov 2015, 03:05:37
030530,17.7672, 08 Nov 2015, 03:06:06
030600,17.7676, 08 Nov 2015, 03:06:36
030630,17.7674, 08 Nov 2015, 03:07:06
030700,17.768, 08 Nov 2015, 03:07:35
030730,17.7693, 08 Nov 2015, 03:08:06
030800,17.7699, 08 Nov 2015, 03:08:36
030830,17.7705, 08 Nov 2015, 03:09:06
030900,17.7722, 08 Nov 2015, 03:09:36
030930,17.7738, 08 Nov 2015, 03:10:05
031000,17.7758, 08 Nov 2015, 03:10:36
031030,17.7768, 08 Nov 2015, 03:11:06
031100,17.7774, 08 Nov 2015, 03:11:36
031130,17.7776, 08 Nov 2015, 03:12:06
031200,17.778, 08 Nov 2015, 03:12:36
031230,17.7775, 08 Nov 2015, 03:13:06
031300,17.7773, 08 Nov 2015, 03:13:36
031330,17.7772, 08 Nov 2015, 03:14:06
031400,17.7782, 08 Nov 2015, 03:14:35
031430,17.7794, 08 Nov 2015, 03:15:06
031500,17.7811, 08 Nov 2015, 03:15:36
031530,17.7818, 08 Nov 2015, 03:16:06
031600,17.7822, 08 Nov 2015, 03:16:35
031630,17.7823, 08 Nov 2015, 03:17:06
031700,17.7823, 08 Nov 2015, 03:17:36
031730,17.7823, 08 Nov 2015, 03:18:06
031800,17.7836, 08 Nov 2015, 03:18:35
031830,17.7844, 08 Nov 2015, 03:19:06
031900,17.7849, 08 Nov 2015, 03:19:36
031930,17.7846, 08 Nov 2015, 03:20:06
032000,17.7834, 08 Nov 2015, 03:20:35
032030,17.7837, 08 Nov 2015, 03:21:05
032100,17.7843, 08 Nov 2015, 03:21:36
032130,17.7853, 08 Nov 2015, 03:22:06
032200,17.7849, 08 Nov 2015, 03:22:36
032230,17.7845, 08 Nov 2015, 03:23:05
032300,17.784, 08 Nov 2015, 03:23:36
032330,17.7841, 08 Nov 2015, 03:24:06
032400,17.7833, 08 Nov 2015, 03:24:36
032430,17.783, 08 Nov 2015, 03:25:05
032500,17.7823, 08 Nov 2015, 03:25:35
032530,17.7809, 08 Nov 2015, 03:26:06
032600,17.7794, 08 Nov 2015, 03:26:36
032630,17.7779, 08 Nov 2015, 03:27:06
032700,17.7767, 08 Nov 2015, 03:27:36
032730,17.7746, 08 Nov 2015, 03:28:07
032800,17.7731, 08 Nov 2015, 03:28:37
032830,17.7724, 08 Nov 2015, 03:29:06
032900,17.7718, 08 Nov 2015, 03:29:36
032930,17.7704, 08 Nov 2015, 03:30:07
033000,17.7688, 08 Nov 2015, 03:30:37
033030,17.7678, 08 Nov 2015, 03:31:06
033100,17.7666, 08 Nov 2015, 03:31:36
033130,17.766, 08 Nov 2015, 03:32:06
033200,17.7649, 08 Nov 2015, 03:32:37
033230,17.7632, 08 Nov 2015, 03:33:07
033300,17.7612, 08 Nov 2015, 03:33:36
033330,17.7589, 08 Nov 2015, 03:34:06
033400,17.7564, 08 Nov 2015, 03:34:37
033430,17.755, 08 Nov 2015, 03:35:07
033500,17.7537, 08 Nov 2015, 03:35:36
033530,17.7526, 08 Nov 2015, 03:36:06
033600,17.7519, 08 Nov 2015, 03:36:36
033630,17.751, 08 Nov 2015, 03:37:06
033700,17.7502, 08 Nov 2015, 03:37:36
033730,17.75, 08 Nov 2015, 03:38:06
033800,17.7493, 08 Nov 2015, 03:38:36
033830,17.7492, 08 Nov 2015, 03:39:07
033900,17.7473, 08 Nov 2015, 03:39:36
033930,17.7456, 08 Nov 2015, 03:40:06
034000,17.7429, 08 Nov 2015, 03:40:36
034030,17.7413, 08 Nov 2015, 03:41:07
034100,17.7384, 08 Nov 2015, 03:41:36
034130,17.7367, 08 Nov 2015, 03:42:06
034200,17.7338, 08 Nov 2015, 03:42:36
034230,17.7327, 08 Nov 2015, 03:43:06
034300,17.7319, 08 Nov 2015, 03:43:37
034330,17.7317, 08 Nov 2015, 03:44:06
034400,17.7318, 08 Nov 2015, 03:44:36
034430,17.732, 08 Nov 2015, 03:45:06
034500,17.7328, 08 Nov 2015, 03:45:37
034530,17.7328, 08 Nov 2015, 03:46:06
034600,17.7325, 08 Nov 2015, 03:46:36
034630,17.7323, 08 Nov 2015, 03:47:06
034700,17.7312, 08 Nov 2015, 03:47:35
034730,17.7308, 08 Nov 2015, 03:48:06
034800,17.7288, 08 Nov 2015, 03:48:36
034830,17.7273, 08 Nov 2015, 03:49:06
034900,17.7249, 08 Nov 2015, 03:49:36
034930,17.7234, 08 Nov 2015, 03:50:06
035000,17.7215, 08 Nov 2015, 03:50:36
035030,17.7211, 08 Nov 2015, 03:51:06
035100,17.719, 08 Nov 2015, 03:51:36
035130,17.7189, 08 Nov 2015, 03:52:06
035200,17.7184, 08 Nov 2015, 03:52:36
035230,17.7182, 08 Nov 2015, 03:53:06
035300,17.7172, 08 Nov 2015, 03:53:36
035330,17.7171, 08 Nov 2015, 03:54:05
035400,17.7174, 08 Nov 2015, 03:54:36
035430,17.7173, 08 Nov 2015, 03:55:06
035500,17.7171, 08 Nov 2015, 03:55:36
035530,17.7157, 08 Nov 2015, 03:56:06
035600,17.7153, 08 Nov 2015, 03:56:36
035630,17.7155, 08 Nov 2015, 03:57:06
035700,17.7148, 08 Nov 2015, 03:57:36
035730,17.7128, 08 Nov 2015, 03:58:05
035800,17.712, 08 Nov 2015, 03:58:36
035830,17.7108, 08 Nov 2015, 03:59:06
035900,17.7105, 08 Nov 2015, 03:59:36
035930,17.7096, 08 Nov 2015, 04:00:05
040000,17.7086, 08 Nov 2015, 04:00:35
040030,17.7079, 08 Nov 2015, 04:01:06
040100,17.7062, 08 Nov 2015, 04:01:36
040130,17.7043, 08 Nov 2015, 04:02:06
040200,17.7029, 08 Nov 2015, 04:02:35
040230,17.7021, 08 Nov 2015, 04:03:05
040300,17.7021, 08 Nov 2015, 04:03:36
040330,17.7013, 08 Nov 2015, 04:04:06
040400,17.7004, 08 Nov 2015, 04:04:36
040430,17.6991, 08 Nov 2015, 04:05:05
040500,17.6976, 08 Nov 2015, 04:05:36
040530,17.6963, 08 Nov 2015, 04:06:06
040600,17.6951, 08 Nov 2015, 04:06:35
040630,17.6945, 08 Nov 2015, 04:07:05
040700,17.6936, 08 Nov 2015, 04:07:35
040730,17.6926, 08 Nov 2015, 04:08:06
040800,17.6898, 08 Nov 2015, 04:08:36
040830,17.6869, 08 Nov 2015, 04:09:05
040900,17.684, 08 Nov 2015, 04:09:35
040930,17.6811, 08 Nov 2015, 04:10:05
041000,17.6776, 08 Nov 2015, 04:10:36
041030,17.6737, 08 Nov 2015, 04:11:06
041100,17.6691, 08 Nov 2015, 04:11:35
041130,17.6637, 08 Nov 2015, 04:12:05
041200,17.6557, 08 Nov 2015, 04:12:36
041230,17.6478, 08 Nov 2015, 04:13:06
041300,17.6406, 08 Nov 2015, 04:13:35
041330,17.6338, 08 Nov 2015, 04:14:05
041400,17.628, 08 Nov 2015, 04:14:35
041430,17.6223, 08 Nov 2015, 04:15:06
041500,17.6174, 08 Nov 2015, 04:15:36
041530,17.6124, 08 Nov 2015, 04:16:05
041600,17.6086, 08 Nov 2015, 04:16:35
041630,17.6067, 08 Nov 2015, 04:17:07
041700,17.6071, 08 Nov 2015, 04:17:36
041730,17.6095, 08 Nov 2015, 04:18:06
041800,17.6133, 08 Nov 2015, 04:18:36
041830,17.6198, 08 Nov 2015, 04:19:06
041900,17.6261, 08 Nov 2015, 04:19:37
041930,17.6342, 08 Nov 2015, 04:20:06
042000,17.6424, 08 Nov 2015, 04:20:36
042030,17.6531, 08 Nov 2015, 04:21:06
042100,17.6665, 08 Nov 2015, 04:21:37
042130,17.6814, 08 Nov 2015, 04:22:06
042200,17.6982, 08 Nov 2015, 04:22:36
042230,17.7148, 08 Nov 2015, 04:23:06
042300,17.7304, 08 Nov 2015, 04:23:37
042330,17.7453, 08 Nov 2015, 04:24:06
042400,17.7581, 08 Nov 2015, 04:24:36
042430,17.7691, 08 Nov 2015, 04:25:06
042500,17.7785, 08 Nov 2015, 04:25:36
042530,17.7863, 08 Nov 2015, 04:26:07
042600,17.7923, 08 Nov 2015, 04:26:36
042630,17.7969, 08 Nov 2015, 04:27:06
042700,17.8013, 08 Nov 2015, 04:27:36
042730,17.8054, 08 Nov 2015, 04:28:07
044400,17.6813, 08 Nov 2015, 04:44:53
044430,17.6815, 08 Nov 2015, 04:45:06
044500,17.6826, 08 Nov 2015, 04:45:37
044530,17.6837, 08 Nov 2015, 04:46:07
044600,17.6845, 08 Nov 2015, 04:46:36
044630,17.6851, 08 Nov 2015, 04:47:06
044700,17.6855, 08 Nov 2015, 04:47:37
044730,17.6844, 08 Nov 2015, 04:48:07
044800,17.6823, 08 Nov 2015, 04:48:36
044830,17.6798, 08 Nov 2015, 04:49:06
044900,17.674, 08 Nov 2015, 04:49:36
044930,17.667, 08 Nov 2015, 04:50:07
045000,17.6593, 08 Nov 2015, 04:50:36
045030,17.65, 08 Nov 2015, 04:51:06
045100,17.642, 08 Nov 2015, 04:51:36
045130,17.6352, 08 Nov 2015, 04:52:07
045200,17.6283, 08 Nov 2015, 04:52:37
045230,17.6216, 08 Nov 2015, 04:53:06
045300,17.6154, 08 Nov 2015, 04:53:36
045330,17.6104, 08 Nov 2015, 04:54:07
045400,17.6068, 08 Nov 2015, 04:54:37
045430,17.6035, 08 Nov 2015, 04:55:06
045500,17.5999, 08 Nov 2015, 04:55:36
045530,17.5972, 08 Nov 2015, 04:56:06
045600,17.5942, 08 Nov 2015, 04:56:36
045630,17.591, 08 Nov 2015, 04:57:06
045700,17.5867, 08 Nov 2015, 04:57:36
045730,17.5826, 08 Nov 2015, 04:58:06
045800,17.5772, 08 Nov 2015, 04:58:37
045830,17.5714, 08 Nov 2015, 04:59:06
045900,17.5652, 08 Nov 2015, 04:59:36
045930,17.5599, 08 Nov 2015, 05:00:06
050000,17.5558, 08 Nov 2015, 05:00:36
050030,17.5524, 08 Nov 2015, 05:01:06
050100,17.5483, 08 Nov 2015, 05:01:36
050130,17.5453, 08 Nov 2015, 05:02:06
050200,17.5427, 08 Nov 2015, 05:02:36
050230,17.5405, 08 Nov 2015, 05:03:06
050300,17.5392, 08 Nov 2015, 05:03:36
050330,17.5392, 08 Nov 2015, 05:04:06
050400,17.5388, 08 Nov 2015, 05:04:36
050430,17.5385, 08 Nov 2015, 05:05:06
050500,17.539, 08 Nov 2015, 05:05:35
050530,17.5395, 08 Nov 2015, 05:06:06
050600,17.5413, 08 Nov 2015, 05:06:36
050630,17.5437, 08 Nov 2015, 05:07:06
050700,17.5467, 08 Nov 2015, 05:07:36
050730,17.551, 08 Nov 2015, 05:08:06
050800,17.5544, 08 Nov 2015, 05:08:36
050830,17.5575, 08 Nov 2015, 05:09:06
050900,17.5598, 08 Nov 2015, 05:09:36
050930,17.5628, 08 Nov 2015, 05:10:05
051000,17.5652, 08 Nov 2015, 05:10:36
051030,17.5673, 08 Nov 2015, 05:11:06
051100,17.5692, 08 Nov 2015, 05:11:36
051130,17.5719, 08 Nov 2015, 05:12:06
051200,17.5741, 08 Nov 2015, 05:12:35
051230,17.5773, 08 Nov 2015, 05:13:06
051300,17.5788, 08 Nov 2015, 05:13:36
051330,17.5815, 08 Nov 2015, 05:14:06
051400,17.5832, 08 Nov 2015, 05:14:35
051430,17.5859, 08 Nov 2015, 05:15:06
051500,17.5874, 08 Nov 2015, 05:15:36
051530,17.589, 08 Nov 2015, 05:16:06
051600,17.5913, 08 Nov 2015, 05:16:35
051630,17.5934, 08 Nov 2015, 05:17:05
051700,17.596, 08 Nov 2015, 05:17:36
051730,17.5983, 08 Nov 2015, 05:18:06
051800,17.6011, 08 Nov 2015, 05:18:35
051830,17.6027, 08 Nov 2015, 05:19:05
051900,17.6051, 08 Nov 2015, 05:19:36
051930,17.6066, 08 Nov 2015, 05:20:06
052000,17.6086, 08 Nov 2015, 05:20:36
052030,17.6101, 08 Nov 2015, 05:21:05
052100,17.6116, 08 Nov 2015, 05:21:35
052130,17.6128, 08 Nov 2015, 05:22:06
052200,17.6146, 08 Nov 2015, 05:22:36
052230,17.6152, 08 Nov 2015, 05:23:05
052300,17.6168, 08 Nov 2015, 05:23:35
052330,17.6182, 08 Nov 2015, 05:24:06
052400,17.6189, 08 Nov 2015, 05:24:36